Time,TemperatureF,DewpointF,PressureIn,WindDirection,WindDirectionDegrees,WindSpeedMPH,WindSpeedGustMPH,Humidity,HourlyPrecipIn,Conditions,Clouds,dailyrainin,SoftwareType,DateUTC
2013-05-25 00:02:00,52.2,46.2,30.01,West,279,0.0,4.0,80,0.00,,,0.00,meteohub,2013-05-25 07:02:00,
2013-05-25 00:07:00,52.0,46.0,30.01,West,279,1.0,5.0,80,0.00,,,0.00,meteohub,2013-05-25 07:07:00,
2013-05-25 00:12:00,51.8,45.9,30.02,West,279,1.0,5.0,80,0.00,,,0.00,meteohub,2013-05-25 07:12:00,
2013-05-25 00:17:00,51.8,46.2,30.02,West,279,0.0,5.0,81,0.00,,,0.00,meteohub,2013-05-25 07:17:00,
2013-05-25 00:22:00,52.0,46.0,30.01,West,279,0.0,5.0,80,0.00,,,0.00,meteohub,2013-05-25 07:22:00,
2013-05-25 00:27:00,51.8,45.9,30.01,West,279,0.0,5.0,80,0.00,,,0.00,meteohub,2013-05-25 07:27:00,
2013-05-25 00:32:00,51.6,46.0,30.01,West,279,0.0,5.0,81,0.00,,,0.00,meteohub,2013-05-25 07:32:00,
2013-05-25 00:37:00,51.6,46.0,30.01,West,279,0.0,5.0,81,0.00,,,0.00,meteohub,2013-05-25 07:37:00,
2013-05-25 00:42:00,51.6,46.0,30.01,West,279,1.0,6.0,81,0.00,,,0.00,meteohub,2013-05-25 07:42:00,
2013-05-25 00:47:00,51.4,46.2,30.01,West,279,0.0,6.0,82,0.00,,,0.00,meteohub,2013-05-25 07:47:00,
2013-05-25 00:52:00,51.6,46.2,30.01,West,279,3.0,6.0,82,0.00,,,0.00,meteohub,2013-05-25 07:52:00,
2013-05-25 00:57:00,51.4,46.2,30.01,West,279,0.0,4.0,82,0.00,,,0.00,meteohub,2013-05-25 07:57:00,
2013-05-25 01:02:00,51.4,46.2,30.01,West,279,4.0,4.0,82,0.00,,,0.00,meteohub,2013-05-25 08:02:00,
2013-05-25 01:07:00,51.4,46.4,30.01,NW,325,0.0,6.0,83,0.00,,,0.00,meteohub,2013-05-25 08:07:00,
2013-05-25 01:12:00,51.3,46.2,30.01,West,279,0.0,6.0,83,0.00,,,0.00,meteohub,2013-05-25 08:12:00,
2013-05-25 01:17:00,51.3,46.2,30.01,West,279,0.0,6.0,83,0.00,,,0.00,meteohub,2013-05-25 08:17:00,
2013-05-25 01:22:00,51.3,46.6,30.01,West,279,0.0,5.0,84,0.00,,,0.00,meteohub,2013-05-25 08:22:00,
2013-05-25 01:27:00,51.4,46.4,30.01,West,279,1.0,4.0,83,0.00,,,0.00,meteohub,2013-05-25 08:27:00,
2013-05-25 01:32:00,51.4,46.8,30.01,West,279,0.0,3.0,84,0.00,,,0.00,meteohub,2013-05-25 08:32:00,
2013-05-25 01:37:00,51.4,46.4,30.01,West,279,1.0,2.0,83,0.00,,,0.00,meteohub,2013-05-25 08:37:00,
2013-05-25 01:42:00,51.3,46.6,30.01,WNW,290,1.0,5.0,84,0.00,,,0.00,meteohub,2013-05-25 08:42:00,
2013-05-25 01:47:00,51.3,46.2,30.01,West,279,0.0,5.0,83,0.00,,,0.00,meteohub,2013-05-25 08:47:00,
2013-05-25 01:52:00,51.3,46.2,30.01,West,279,1.0,6.0,83,0.00,,,0.00,meteohub,2013-05-25 08:52:00,
2013-05-25 01:57:00,51.1,46.4,30.01,West,279,2.0,6.0,84,0.00,,,0.00,meteohub,2013-05-25 08:57:00,
2013-05-25 02:02:00,51.1,46.4,30.01,WNW,284,0.0,6.0,84,0.00,,,0.00,meteohub,2013-05-25 09:02:00,
2013-05-25 02:07:00,51.1,46.4,30.01,WNW,290,0.0,5.0,84,0.00,,,0.00,meteohub,2013-05-25 09:07:00,
2013-05-25 02:12:00,51.1,46.4,30.01,NW,313,0.0,5.0,84,0.00,,,0.00,meteohub,2013-05-25 09:12:00,
2013-05-25 02:17:00,51.1,46.4,30.01,West,279,1.0,5.0,84,0.00,,,0.00,meteohub,2013-05-25 09:17:00,
2013-05-25 02:22:00,51.1,46.4,30.01,West,279,0.0,7.0,84,0.00,,,0.00,meteohub,2013-05-25 09:22:00,
2013-05-25 02:27:00,50.9,46.2,30.01,West,279,1.0,7.0,84,0.00,,,0.00,meteohub,2013-05-25 09:27:00,
2013-05-25 02:32:00,50.9,46.2,30.01,West,279,2.0,7.0,84,0.00,,,0.00,meteohub,2013-05-25 09:32:00,
2013-05-25 02:37:00,50.7,46.0,30.01,West,279,0.0,4.0,84,0.00,,,0.00,meteohub,2013-05-25 09:37:00,
2013-05-25 02:42:00,50.7,46.0,30.01,West,279,0.0,7.0,84,0.00,,,0.00,meteohub,2013-05-25 09:42:00,
2013-05-25 02:47:00,50.9,46.2,30.01,West,279,0.0,7.0,84,0.00,,,0.00,meteohub,2013-05-25 09:47:00,
2013-05-25 02:52:00,50.9,46.2,30.01,West,279,2.0,7.0,84,0.00,,,0.00,meteohub,2013-05-25 09:52:00,
2013-05-25 02:57:00,50.9,46.2,30.01,West,279,0.0,4.0,84,0.00,,,0.00,meteohub,2013-05-25 09:57:00,
2013-05-25 03:02:00,50.7,46.0,30.01,West,279,0.0,4.0,84,0.00,,,0.00,meteohub,2013-05-25 10:02:00,
2013-05-25 03:07:00,50.7,46.4,30.01,West,279,1.0,4.0,85,0.00,,,0.00,meteohub,2013-05-25 10:07:00,
2013-05-25 03:12:00,50.9,46.2,30.01,West,279,0.0,4.0,84,0.00,,,0.00,meteohub,2013-05-25 10:12:00,
2013-05-25 03:17:00,51.1,46.4,30.01,West,279,0.0,4.0,84,0.00,,,0.00,meteohub,2013-05-25 10:17:00,
2013-05-25 03:22:00,51.1,46.4,30.01,West,279,0.0,4.0,84,0.00,,,0.00,meteohub,2013-05-25 10:22:00,
2013-05-25 03:27:00,51.1,46.4,30.01,West,279,0.0,4.0,84,0.00,,,0.00,meteohub,2013-05-25 10:27:00,
2013-05-25 03:32:00,51.1,46.4,30.01,West,279,2.0,4.0,84,0.00,,,0.00,meteohub,2013-05-25 10:32:00,
2013-05-25 03:37:00,51.1,46.4,30.01,West,279,1.0,4.0,84,0.00,,,0.00,meteohub,2013-05-25 10:37:00,
2013-05-25 03:42:00,51.1,46.4,30.01,West,279,0.0,4.0,84,0.00,,,0.00,meteohub,2013-05-25 10:42:00,
2013-05-25 03:47:00,51.1,46.4,30.01,West,279,0.0,4.0,84,0.00,,,0.00,meteohub,2013-05-25 10:47:00,
2013-05-25 03:52:00,51.1,46.8,30.01,West,279,0.0,2.0,85,0.00,,,0.00,meteohub,2013-05-25 10:52:00,
2013-05-25 03:57:00,50.9,46.6,30.01,West,279,2.0,3.0,85,0.00,,,0.00,meteohub,2013-05-25 10:57:00,
2013-05-25 04:02:00,50.9,46.6,30.01,West,279,1.0,6.0,85,0.00,,,0.00,meteohub,2013-05-25 11:02:00,
2013-05-25 04:07:00,50.7,46.4,30.01,West,279,0.0,6.0,85,0.00,,,0.00,meteohub,2013-05-25 11:07:00,
2013-05-25 04:12:00,50.7,46.4,30.01,West,279,0.0,4.0,85,0.00,,,0.00,meteohub,2013-05-25 11:12:00,
2013-05-25 04:17:00,50.9,46.6,30.01,West,279,1.0,4.0,85,0.00,,,0.00,meteohub,2013-05-25 11:17:00,
2013-05-25 04:22:00,51.1,46.8,30.01,West,279,0.0,4.0,85,0.00,,,0.00,meteohub,2013-05-25 11:22:00,
2013-05-25 04:27:00,51.1,46.8,30.01,West,279,0.0,2.0,85,0.00,,,0.00,meteohub,2013-05-25 11:27:00,
2013-05-25 04:32:00,51.1,46.4,30.01,West,279,0.0,3.0,84,0.00,,,0.00,meteohub,2013-05-25 11:32:00,
2013-05-25 04:37:00,51.1,46.4,30.01,West,279,0.0,3.0,84,0.00,,,0.00,meteohub,2013-05-25 11:37:00,
2013-05-25 04:42:00,51.1,46.4,30.01,West,279,3.0,3.0,84,0.00,,,0.00,meteohub,2013-05-25 11:42:00,
2013-05-25 04:47:00,51.3,46.6,30.01,West,279,1.0,3.0,84,0.00,,,0.00,meteohub,2013-05-25 11:47:00,
2013-05-25 04:52:00,51.4,46.4,30.01,West,279,1.0,3.0,83,0.00,,,0.00,meteohub,2013-05-25 11:52:00,
2013-05-25 04:57:00,51.4,46.4,30.01,West,279,0.0,3.0,83,0.00,,,0.00,meteohub,2013-05-25 11:57:00,
2013-05-25 05:02:00,51.4,46.2,30.01,West,279,0.0,2.0,82,0.00,,,0.00,meteohub,2013-05-25 12:02:00,
2013-05-25 05:07:00,51.4,46.4,30.01,West,279,1.0,3.0,83,0.00,,,0.00,meteohub,2013-05-25 12:07:00,
2013-05-25 05:12:00,51.4,46.4,30.01,West,279,1.0,3.0,83,0.00,,,0.00,meteohub,2013-05-25 12:12:00,
2013-05-25 05:17:00,51.4,46.4,30.01,West,279,0.0,3.0,83,0.00,,,0.00,meteohub,2013-05-25 12:17:00,
2013-05-25 05:22:00,51.3,46.2,30.02,West,279,0.0,2.0,83,0.00,,,0.00,meteohub,2013-05-25 12:22:00,
2013-05-25 05:27:00,51.3,46.2,30.01,West,279,0.0,2.0,83,0.00,,,0.00,meteohub,2013-05-25 12:27:00,
2013-05-25 05:32:00,51.4,46.4,30.02,West,279,0.0,1.0,83,0.00,,,0.00,meteohub,2013-05-25 12:32:00,
2013-05-25 05:37:00,51.4,46.4,30.02,West,279,3.0,5.0,83,0.00,,,0.00,meteohub,2013-05-25 12:37:00,
2013-05-25 05:47:00,51.3,46.2,30.02,West,279,0.0,5.0,83,0.00,,,0.00,meteohub,2013-05-25 12:47:00,
2013-05-25 05:52:00,51.3,46.2,30.02,West,279,0.0,4.0,83,0.00,,,0.00,meteohub,2013-05-25 12:52:00,
2013-05-25 05:57:00,51.1,46.4,30.02,West,279,0.0,3.0,84,0.00,,,0.00,meteohub,2013-05-25 12:57:00,
2013-05-25 06:02:00,51.1,46.8,30.03,West,279,0.0,3.0,85,0.00,,,0.00,meteohub,2013-05-25 13:02:00,
2013-05-25 06:07:00,50.9,46.6,30.03,West,279,0.0,2.0,85,0.00,,,0.00,meteohub,2013-05-25 13:07:00,
2013-05-25 06:12:00,51.1,46.8,30.03,West,279,1.0,2.0,85,0.00,,,0.00,meteohub,2013-05-25 13:12:00,
2013-05-25 06:17:00,51.1,46.8,30.03,West,279,0.0,2.0,85,0.00,,,0.00,meteohub,2013-05-25 13:17:00,
2013-05-25 06:22:00,51.3,46.6,30.03,West,279,0.0,2.0,84,0.00,,,0.00,meteohub,2013-05-25 13:22:00,
2013-05-25 06:27:00,51.3,46.6,30.03,West,279,0.0,3.0,84,0.00,,,0.00,meteohub,2013-05-25 13:27:00,
2013-05-25 06:32:00,51.3,46.6,30.03,West,279,0.0,3.0,84,0.00,,,0.00,meteohub,2013-05-25 13:32:00,
2013-05-25 06:37:00,51.4,46.8,30.03,West,279,0.0,5.0,84,0.00,,,0.00,meteohub,2013-05-25 13:37:00,
2013-05-25 06:42:00,51.6,46.9,30.03,West,279,0.0,5.0,84,0.00,,,0.00,meteohub,2013-05-25 13:42:00,
2013-05-25 06:47:00,52.0,46.9,30.03,West,279,0.0,2.0,83,0.00,,,0.00,meteohub,2013-05-25 13:47:00,
2013-05-25 06:52:00,52.0,46.6,30.03,West,279,2.0,2.0,82,0.00,,,0.00,meteohub,2013-05-25 13:52:00,
2013-05-25 06:57:00,52.2,46.8,30.03,West,279,0.0,3.0,82,0.00,,,0.00,meteohub,2013-05-25 13:57:00,
2013-05-25 07:02:00,52.3,46.9,30.03,West,279,0.0,3.0,82,0.00,,,0.00,meteohub,2013-05-25 14:02:00,
2013-05-25 07:07:00,52.5,46.9,30.03,West,279,0.0,3.0,81,0.00,,,0.00,meteohub,2013-05-25 14:07:00,
2013-05-25 07:12:00,52.5,46.9,30.03,West,279,0.0,2.0,81,0.00,,,0.00,meteohub,2013-05-25 14:12:00,
2013-05-25 07:17:00,52.9,47.3,30.03,West,279,1.0,2.0,81,0.00,,,0.00,meteohub,2013-05-25 14:17:00,
2013-05-25 07:22:00,52.9,46.6,30.02,West,279,0.0,3.0,79,0.00,,,0.00,meteohub,2013-05-25 14:22:00,
2013-05-25 07:27:00,53.1,46.8,30.03,West,279,0.0,3.0,79,0.00,,,0.00,meteohub,2013-05-25 14:27:00,
2013-05-25 07:32:00,53.2,46.9,30.03,West,279,0.0,3.0,79,0.00,,,0.00,meteohub,2013-05-25 14:32:00,
2013-05-25 07:37:00,53.4,47.1,30.03,West,279,1.0,4.0,79,0.00,,,0.00,meteohub,2013-05-25 14:37:00,
2013-05-25 07:42:00,54.0,47.3,30.03,West,279,3.0,4.0,78,0.00,,,0.00,meteohub,2013-05-25 14:42:00,
2013-05-25 07:47:00,54.1,47.1,30.03,West,279,0.0,4.0,77,0.00,,,0.00,meteohub,2013-05-25 14:47:00,
2013-05-25 07:52:00,54.3,46.9,30.03,West,278,0.0,4.0,76,0.00,,,0.00,meteohub,2013-05-25 14:52:00,
2013-05-25 08:02:00,54.9,47.1,30.03,West,279,0.0,4.0,75,0.00,,,0.00,meteohub,2013-05-25 15:02:00,
2013-05-25 08:07:00,55.0,47.3,30.03,West,279,0.0,4.0,75,0.00,,,0.00,meteohub,2013-05-25 15:07:00,
2013-05-25 08:12:00,55.2,47.1,30.03,West,279,0.0,4.0,74,0.00,,,0.00,meteohub,2013-05-25 15:12:00,
2013-05-25 08:17:00,55.8,47.3,30.03,West,279,0.0,5.0,73,0.00,,,0.00,meteohub,2013-05-25 15:17:00,
2013-05-25 08:22:00,55.9,47.5,30.03,West,279,0.0,5.0,73,0.00,,,0.00,meteohub,2013-05-25 15:22:00,
2013-05-25 08:27:00,56.5,48.0,30.03,West,279,0.0,4.0,73,0.00,,,0.00,meteohub,2013-05-25 15:27:00,
2013-05-25 08:32:00,56.8,47.8,30.03,West,279,0.0,3.0,72,0.00,,,0.00,meteohub,2013-05-25 15:32:00,
2013-05-25 08:37:00,57.2,48.2,30.03,West,279,1.0,3.0,72,0.00,,,0.00,meteohub,2013-05-25 15:37:00,
2013-05-25 08:42:00,57.4,47.7,30.03,West,279,1.0,3.0,70,0.00,,,0.00,meteohub,2013-05-25 15:42:00,
2013-05-25 08:47:00,57.0,46.9,30.03,West,279,0.0,3.0,69,0.00,,,0.00,meteohub,2013-05-25 15:47:00,
2013-05-25 08:52:00,56.7,46.9,30.03,West,279,2.0,5.0,70,0.00,,,0.00,meteohub,2013-05-25 15:52:00,
2013-05-25 08:57:00,56.8,47.1,30.03,West,279,2.0,5.0,70,0.00,,,0.00,meteohub,2013-05-25 15:57:00,
2013-05-25 09:02:00,57.4,47.3,30.03,West,279,1.0,5.0,69,0.00,,,0.00,meteohub,2013-05-25 16:02:00,
2013-05-25 09:07:00,57.6,47.1,30.03,West,279,1.0,5.0,68,0.00,,,0.00,meteohub,2013-05-25 16:07:00,
2013-05-25 09:12:00,57.2,46.4,30.04,West,279,0.0,5.0,67,0.00,,,0.00,meteohub,2013-05-25 16:12:00,
2013-05-25 09:17:00,57.6,47.1,30.03,West,279,0.0,5.0,68,0.00,,,0.00,meteohub,2013-05-25 16:17:00,
2013-05-25 09:22:00,58.6,47.3,30.03,West,279,0.0,5.0,66,0.00,,,0.00,meteohub,2013-05-25 16:22:00,
2013-05-25 09:27:00,58.8,47.1,30.03,West,279,0.0,4.0,65,0.00,,,0.00,meteohub,2013-05-25 16:27:00,
2013-05-25 09:32:00,58.8,47.1,30.03,West,279,0.0,4.0,65,0.00,,,0.00,meteohub,2013-05-25 16:32:00,
2013-05-25 09:37:00,59.4,47.1,30.04,West,279,0.0,5.0,64,0.00,,,0.00,meteohub,2013-05-25 16:37:00,
2013-05-25 09:42:00,59.0,46.8,30.03,West,279,0.0,6.0,64,0.00,,,0.00,meteohub,2013-05-25 16:42:00,
2013-05-25 09:47:00,59.2,47.5,30.03,West,279,0.0,6.0,65,0.00,,,0.00,meteohub,2013-05-25 16:47:00,
2013-05-25 09:52:00,60.4,47.3,30.04,West,279,0.0,6.0,62,0.00,,,0.00,meteohub,2013-05-25 16:52:00,
2013-05-25 09:57:00,61.2,48.0,30.04,ENE,57,0.0,6.0,62,0.00,,,0.00,meteohub,2013-05-25 16:57:00,
2013-05-25 10:02:00,61.2,47.1,30.03,ENE,57,0.0,3.0,60,0.00,,,0.00,meteohub,2013-05-25 17:02:00,
2013-05-25 10:07:00,61.7,48.6,30.03,North,5,0.0,3.0,62,0.00,,,0.00,meteohub,2013-05-25 17:07:00,
2013-05-25 10:12:00,61.2,47.1,30.04,ENE,58,1.0,7.0,60,0.00,,,0.00,meteohub,2013-05-25 17:12:00,
2013-05-25 10:17:00,61.3,46.9,30.04,West,279,1.0,7.0,59,0.00,,,0.00,meteohub,2013-05-25 17:17:00,
2013-05-25 10:22:00,61.3,46.9,30.03,West,279,0.0,7.0,59,0.00,,,0.00,meteohub,2013-05-25 17:22:00,
2013-05-25 10:27:00,61.2,47.1,30.04,West,279,0.0,4.0,60,0.00,,,0.00,meteohub,2013-05-25 17:27:00,
2013-05-25 10:32:00,61.5,47.1,30.03,West,279,0.0,4.0,59,0.00,,,0.00,meteohub,2013-05-25 17:32:00,
2013-05-25 10:37:00,62.4,47.8,30.04,West,279,0.0,4.0,59,0.00,,,0.00,meteohub,2013-05-25 17:37:00,
2013-05-25 10:42:00,63.1,47.7,30.04,West,279,0.0,4.0,57,0.00,,,0.00,meteohub,2013-05-25 17:42:00,
2013-05-25 10:47:00,63.5,48.0,30.04,West,279,1.0,4.0,57,0.00,,,0.00,meteohub,2013-05-25 17:47:00,
2013-05-25 10:52:00,63.1,48.2,30.04,West,279,1.0,4.0,58,0.00,,,0.00,meteohub,2013-05-25 17:52:00,
2013-05-25 10:57:00,62.8,47.8,30.04,West,279,1.0,5.0,58,0.00,,,0.00,meteohub,2013-05-25 17:57:00,
2013-05-25 11:02:00,62.4,47.8,30.04,West,279,4.0,5.0,59,0.00,,,0.00,meteohub,2013-05-25 18:02:00,
2013-05-25 11:07:00,62.1,48.0,30.04,West,279,1.0,11.0,60,0.00,,,0.00,meteohub,2013-05-25 18:07:00,
2013-05-25 11:12:00,62.4,48.4,30.04,West,279,2.0,11.0,60,0.00,,,0.00,meteohub,2013-05-25 18:12:00,
2013-05-25 11:17:00,62.2,47.7,30.04,West,279,2.0,11.0,59,0.00,,,0.00,meteohub,2013-05-25 18:17:00,
2013-05-25 11:22:00,62.1,48.0,30.04,West,279,3.0,10.0,60,0.00,,,0.00,meteohub,2013-05-25 18:22:00,
2013-05-25 11:27:00,62.2,47.7,30.05,West,279,6.0,10.0,59,0.00,,,0.00,meteohub,2013-05-25 18:27:00,
2013-05-25 11:32:00,62.1,47.5,30.05,West,279,1.0,10.0,59,0.00,,,0.00,meteohub,2013-05-25 18:32:00,
2013-05-25 11:37:00,62.2,47.7,30.05,West,279,2.0,10.0,59,0.00,,,0.00,meteohub,2013-05-25 18:37:00,
2013-05-25 11:42:00,62.4,47.8,30.05,West,279,8.0,10.0,59,0.00,,,0.00,meteohub,2013-05-25 18:42:00,
2013-05-25 11:47:00,61.9,47.5,30.05,West,279,0.0,9.0,59,0.00,,,0.00,meteohub,2013-05-25 18:47:00,
2013-05-25 11:52:00,61.7,47.7,30.06,West,279,0.0,12.0,60,0.00,,,0.00,meteohub,2013-05-25 18:52:00,
2013-05-25 11:57:00,62.4,47.5,30.05,West,279,0.0,12.0,58,0.00,,,0.00,meteohub,2013-05-25 18:57:00,
2013-05-25 12:02:00,62.6,47.7,30.05,West,279,3.0,12.0,58,0.00,,,0.00,meteohub,2013-05-25 19:02:00,
2013-05-25 12:07:00,62.2,48.2,30.05,West,279,3.0,7.0,60,0.00,,,0.00,meteohub,2013-05-25 19:07:00,
2013-05-25 12:12:00,61.5,47.1,30.06,West,279,7.0,12.0,59,0.00,,,0.00,meteohub,2013-05-25 19:12:00,
2013-05-25 12:17:00,61.3,47.8,30.05,West,279,4.0,12.0,61,0.00,,,0.00,meteohub,2013-05-25 19:17:00,
2013-05-25 12:22:00,61.5,48.0,30.05,West,279,5.0,13.0,61,0.00,,,0.00,meteohub,2013-05-25 19:22:00,
2013-05-25 12:27:00,61.3,48.2,30.06,West,279,1.0,13.0,62,0.00,,,0.00,meteohub,2013-05-25 19:27:00,
2013-05-25 12:32:00,62.4,48.7,30.06,NW,305,1.0,13.0,61,0.00,,,0.00,meteohub,2013-05-25 19:32:00,
2013-05-25 12:37:00,62.8,48.2,30.06,West,279,3.0,9.0,59,0.00,,,0.00,meteohub,2013-05-25 19:37:00,
2013-05-25 12:42:00,62.1,48.0,30.06,West,279,4.0,8.0,60,0.00,,,0.00,meteohub,2013-05-25 19:42:00,
2013-05-25 12:47:00,61.9,47.8,30.06,West,281,0.0,8.0,60,0.00,,,0.00,meteohub,2013-05-25 19:47:00,
2013-05-25 12:52:00,61.7,48.2,30.06,West,279,4.0,8.0,61,0.00,,,0.00,meteohub,2013-05-25 19:52:00,
2013-05-25 12:57:00,61.2,47.7,30.06,ENE,66,4.0,8.0,61,0.00,,,0.00,meteohub,2013-05-25 19:57:00,
2013-05-25 13:02:00,61.0,47.8,30.06,West,279,4.0,8.0,62,0.00,,,0.00,meteohub,2013-05-25 20:02:00,
2013-05-25 13:07:00,60.8,48.2,30.06,West,279,5.0,10.0,63,0.00,,,0.00,meteohub,2013-05-25 20:07:00,
2013-05-25 13:12:00,61.2,48.4,30.06,West,279,3.0,10.0,63,0.00,,,0.00,meteohub,2013-05-25 20:12:00,
2013-05-25 13:17:00,61.5,48.4,30.06,NNW,333,4.0,13.0,62,0.00,,,0.00,meteohub,2013-05-25 20:17:00,
2013-05-25 13:22:00,61.2,48.0,30.06,West,279,4.0,13.0,62,0.00,,,0.00,meteohub,2013-05-25 20:22:00,
2013-05-25 13:27:00,61.0,48.4,30.06,West,279,9.0,13.0,63,0.00,,,0.00,meteohub,2013-05-25 20:27:00,
2013-05-25 13:32:00,60.4,48.2,30.06,West,279,4.0,10.0,64,0.00,,,0.00,meteohub,2013-05-25 20:32:00,
2013-05-25 13:37:00,61.0,48.4,30.06,WNW,288,3.0,10.0,63,0.00,,,0.00,meteohub,2013-05-25 20:37:00,
2013-05-25 13:42:00,60.4,47.8,30.05,WNW,291,6.0,12.0,63,0.00,,,0.00,meteohub,2013-05-25 20:42:00,
2013-05-25 13:47:00,59.7,47.5,30.06,West,279,4.0,12.0,64,0.00,,,0.00,meteohub,2013-05-25 20:47:00,
2013-05-25 13:52:00,59.5,47.8,30.06,West,279,5.0,12.0,65,0.00,,,0.00,meteohub,2013-05-25 20:52:00,
2013-05-25 13:57:00,59.5,47.8,30.06,ENE,73,7.0,13.0,65,0.00,,,0.00,meteohub,2013-05-25 20:57:00,
2013-05-25 14:02:00,58.8,47.5,30.06,ENE,74,9.0,13.0,66,0.00,,,0.00,meteohub,2013-05-25 21:02:00,
2013-05-25 14:07:00,58.5,47.5,30.06,West,279,4.0,18.0,67,0.00,,,0.00,meteohub,2013-05-25 21:07:00,
2013-05-25 14:12:00,58.3,47.8,30.05,NW,308,8.0,18.0,68,0.00,,,0.00,meteohub,2013-05-25 21:12:00,
2013-05-25 14:17:00,57.9,47.8,30.05,West,279,9.0,17.0,69,0.00,,,0.00,meteohub,2013-05-25 21:17:00,
2013-05-25 14:22:00,57.9,47.8,30.06,West,279,6.0,17.0,69,0.00,,,0.00,meteohub,2013-05-25 21:22:00,
2013-05-25 14:27:00,57.9,47.8,30.05,West,279,10.0,17.0,69,0.00,,,0.00,meteohub,2013-05-25 21:27:00,
2013-05-25 14:32:00,58.6,47.7,30.05,West,279,6.0,17.0,67,0.00,,,0.00,meteohub,2013-05-25 21:32:00,
2013-05-25 14:37:00,58.6,47.7,30.05,ESE,102,13.0,17.0,67,0.00,,,0.00,meteohub,2013-05-25 21:37:00,
2013-05-25 14:42:00,58.5,48.0,30.05,NW,323,9.0,15.0,68,0.00,,,0.00,meteohub,2013-05-25 21:42:00,
2013-05-25 14:47:00,57.9,47.5,30.05,West,279,8.0,15.0,68,0.00,,,0.00,meteohub,2013-05-25 21:47:00,
2013-05-25 14:52:00,58.3,47.8,30.05,NW,304,10.0,15.0,68,0.00,,,0.00,meteohub,2013-05-25 21:52:00,
2013-05-25 14:57:00,58.3,47.8,30.05,West,279,10.0,18.0,68,0.00,,,0.00,meteohub,2013-05-25 21:57:00,
2013-05-25 15:02:00,58.6,47.7,30.05,West,279,7.0,18.0,67,0.00,,,0.00,meteohub,2013-05-25 22:02:00,
2013-05-25 15:07:00,58.6,47.7,30.04,West,279,9.0,18.0,67,0.00,,,0.00,meteohub,2013-05-25 22:07:00,
2013-05-25 15:12:00,58.5,48.0,30.05,West,279,8.0,16.0,68,0.00,,,0.00,meteohub,2013-05-25 22:12:00,
2013-05-25 15:17:00,58.5,48.0,30.05,West,279,8.0,15.0,68,0.00,,,0.00,meteohub,2013-05-25 22:17:00,
2013-05-25 15:22:00,57.9,47.5,30.05,West,279,11.0,16.0,68,0.00,,,0.00,meteohub,2013-05-25 22:22:00,
2013-05-25 15:27:00,58.3,47.8,30.05,West,279,5.0,16.0,68,0.00,,,0.00,meteohub,2013-05-25 22:27:00,
2013-05-25 15:32:00,58.6,48.2,30.04,West,279,7.0,16.0,68,0.00,,,0.00,meteohub,2013-05-25 22:32:00,
2013-05-25 15:37:00,58.6,47.7,30.05,NNW,332,4.0,17.0,67,0.00,,,0.00,meteohub,2013-05-25 22:37:00,
2013-05-25 15:42:00,58.6,48.2,30.05,West,279,10.0,17.0,68,0.00,,,0.00,meteohub,2013-05-25 22:42:00,
2013-05-25 15:47:00,58.6,48.2,30.04,West,279,7.0,16.0,68,0.00,,,0.00,meteohub,2013-05-25 22:47:00,
2013-05-25 15:52:00,58.5,48.0,30.04,West,279,11.0,15.0,68,0.00,,,0.00,meteohub,2013-05-25 22:52:00,
2013-05-25 15:57:00,58.3,48.2,30.04,West,279,8.0,17.0,69,0.00,,,0.00,meteohub,2013-05-25 22:57:00,
2013-05-25 16:02:00,58.3,48.2,30.04,ENE,63,9.0,17.0,69,0.00,,,0.00,meteohub,2013-05-25 23:02:00,
2013-05-25 16:07:00,58.3,48.6,30.04,West,279,7.0,17.0,70,0.00,,,0.00,meteohub,2013-05-25 23:07:00,
2013-05-25 16:12:00,57.9,48.6,30.05,West,281,12.0,20.0,71,0.00,,,0.00,meteohub,2013-05-25 23:12:00,
2013-05-25 16:17:00,57.9,48.6,30.05,West,279,9.0,20.0,71,0.00,,,0.00,meteohub,2013-05-25 23:17:00,
2013-05-25 16:22:00,58.1,48.7,30.04,ENE,69,9.0,20.0,71,0.00,,,0.00,meteohub,2013-05-25 23:22:00,
2013-05-25 16:27:00,58.5,48.7,30.04,West,279,5.0,15.0,70,0.00,,,0.00,meteohub,2013-05-25 23:27:00,
2013-05-25 16:32:00,58.6,49.3,30.04,West,279,9.0,18.0,71,0.00,,,0.00,meteohub,2013-05-25 23:32:00,
2013-05-25 16:37:00,58.5,49.1,30.05,ENE,61,2.0,18.0,71,0.00,,,0.00,meteohub,2013-05-25 23:37:00,
2013-05-25 16:42:00,59.0,49.6,30.05,West,279,2.0,18.0,71,0.00,,,0.00,meteohub,2013-05-25 23:42:00,
2013-05-25 16:47:00,59.4,49.1,30.05,WNW,285,4.0,16.0,69,0.00,,,0.00,meteohub,2013-05-25 23:47:00,
2013-05-25 16:52:00,59.5,49.8,30.04,West,279,9.0,12.0,70,0.00,,,0.00,meteohub,2013-05-25 23:52:00,
2013-05-25 16:57:00,59.5,49.3,30.04,West,279,4.0,12.0,69,0.00,,,0.00,meteohub,2013-05-25 23:57:00,
2013-05-25 17:02:00,59.0,48.9,30.04,West,279,4.0,12.0,69,0.00,,,0.00,meteohub,2013-05-26 00:02:00,
2013-05-25 17:07:00,58.5,49.1,30.04,West,279,5.0,15.0,71,0.00,,,0.00,meteohub,2013-05-26 00:07:00,
2013-05-25 17:12:00,58.5,49.5,30.04,West,279,7.0,17.0,72,0.00,,,0.00,meteohub,2013-05-26 00:12:00,
2013-05-25 17:17:00,58.5,49.1,30.04,WNW,286,1.0,17.0,71,0.00,,,0.00,meteohub,2013-05-26 00:17:00,
2013-05-25 17:22:00,58.5,49.1,30.04,West,279,14.0,16.0,71,0.00,,,0.00,meteohub,2013-05-26 00:22:00,
2013-05-25 17:27:00,57.7,49.1,30.04,ENE,64,8.0,16.0,73,0.00,,,0.00,meteohub,2013-05-26 00:27:00,
2013-05-25 17:32:00,57.2,48.9,30.04,West,280,10.0,16.0,74,0.00,,,0.00,meteohub,2013-05-26 00:32:00,
2013-05-25 17:37:00,57.4,49.1,30.04,East,88,9.0,16.0,74,0.00,,,0.00,meteohub,2013-05-26 00:37:00,
2013-05-25 17:42:00,57.4,49.1,30.04,West,279,6.0,16.0,74,0.00,,,0.00,meteohub,2013-05-26 00:42:00,
2013-05-25 17:47:00,57.4,49.1,30.04,West,279,4.0,16.0,74,0.00,,,0.00,meteohub,2013-05-26 00:47:00,
2013-05-25 17:52:00,57.4,49.1,30.04,East,98,6.0,16.0,74,0.00,,,0.00,meteohub,2013-05-26 00:52:00,
2013-05-25 17:57:00,57.4,49.5,30.04,WNW,292,7.0,16.0,75,0.00,,,0.00,meteohub,2013-05-26 00:57:00,
2013-05-25 18:02:00,57.6,49.6,30.04,West,279,6.0,16.0,75,0.00,,,0.00,meteohub,2013-05-26 01:02:00,
2013-05-25 18:07:00,57.6,49.6,30.04,ESE,107,12.0,15.0,75,0.00,,,0.00,meteohub,2013-05-26 01:07:00,
2013-05-25 18:12:00,57.4,49.5,30.04,West,279,9.0,13.0,75,0.00,,,0.00,meteohub,2013-05-26 01:12:00,
2013-05-25 18:17:00,57.2,49.3,30.04,West,279,7.0,13.0,75,0.00,,,0.00,meteohub,2013-05-26 01:17:00,
2013-05-25 18:22:00,56.8,49.3,30.04,West,279,4.0,14.0,76,0.00,,,0.00,meteohub,2013-05-26 01:22:00,
2013-05-25 18:27:00,57.0,49.5,30.04,WNW,286,10.0,15.0,76,0.00,,,0.00,meteohub,2013-05-26 01:27:00,
2013-05-25 18:32:00,56.7,49.1,30.04,West,279,6.0,15.0,76,0.00,,,0.00,meteohub,2013-05-26 01:32:00,
2013-05-25 18:37:00,56.5,49.3,30.04,West,279,10.0,15.0,77,0.00,,,0.00,meteohub,2013-05-26 01:37:00,
2013-05-25 18:42:00,56.5,49.3,30.04,West,279,5.0,15.0,77,0.00,,,0.00,meteohub,2013-05-26 01:42:00,
2013-05-25 18:47:00,56.5,49.3,30.04,West,279,4.0,15.0,77,0.00,,,0.00,meteohub,2013-05-26 01:47:00,
2013-05-25 18:52:00,56.7,49.5,30.04,West,279,5.0,16.0,77,0.00,,,0.00,meteohub,2013-05-26 01:52:00,
2013-05-25 18:57:00,56.7,49.5,30.04,West,279,6.0,16.0,77,0.00,,,0.00,meteohub,2013-05-26 01:57:00,
2013-05-25 19:02:00,56.7,49.8,30.04,NNE,14,4.0,15.0,78,0.00,,,0.00,meteohub,2013-05-26 02:02:00,
2013-05-25 19:07:00,56.7,49.8,30.04,West,279,4.0,15.0,78,0.00,,,0.00,meteohub,2013-05-26 02:07:00,
2013-05-25 19:12:00,56.5,49.6,30.04,ENE,74,12.0,13.0,78,0.00,,,0.00,meteohub,2013-05-26 02:12:00,
2013-05-25 19:17:00,56.1,49.6,30.04,ENE,61,3.0,14.0,79,0.00,,,0.00,meteohub,2013-05-26 02:17:00,
2013-05-25 19:22:00,55.8,49.6,30.04,West,279,5.0,14.0,80,0.00,,,0.00,meteohub,2013-05-26 02:22:00,
2013-05-25 19:27:00,55.4,49.6,30.04,West,279,8.0,14.0,81,0.00,,,0.00,meteohub,2013-05-26 02:27:00,
2013-05-25 19:32:00,55.6,50.2,30.04,West,279,5.0,13.0,82,0.00,,,0.00,meteohub,2013-05-26 02:32:00,
2013-05-25 19:37:00,55.6,49.8,30.04,West,279,2.0,13.0,81,0.00,,,0.00,meteohub,2013-05-26 02:37:00,
2013-05-25 19:42:00,55.6,49.8,30.04,West,280,6.0,12.0,81,0.00,,,0.00,meteohub,2013-05-26 02:42:00,
2013-05-25 19:47:00,55.4,50.0,30.04,West,279,2.0,12.0,82,0.00,,,0.00,meteohub,2013-05-26 02:47:00,
2013-05-25 19:52:00,55.0,49.6,30.04,West,279,9.0,10.0,82,0.00,,,0.00,meteohub,2013-05-26 02:52:00,
2013-05-25 19:57:00,54.9,49.8,30.04,West,279,8.0,15.0,83,0.00,,,0.00,meteohub,2013-05-26 02:57:00,
2013-05-25 20:02:00,54.7,50.0,30.04,West,279,5.0,15.0,84,0.00,,,0.00,meteohub,2013-05-26 03:02:00,
2013-05-25 20:07:00,54.5,49.8,30.04,West,280,5.0,15.0,84,0.00,,,0.00,meteohub,2013-05-26 03:07:00,
2013-05-25 20:12:00,54.3,49.8,30.04,West,279,5.0,13.0,85,0.00,,,0.00,meteohub,2013-05-26 03:12:00,
2013-05-25 20:17:00,54.1,49.8,30.04,ESE,109,11.0,13.0,85,0.00,,,0.00,meteohub,2013-05-26 03:17:00,
2013-05-25 20:22:00,54.0,49.6,30.04,West,279,5.0,15.0,85,0.00,,,0.00,meteohub,2013-05-26 03:22:00,
2013-05-25 20:27:00,53.8,49.6,30.05,West,279,5.0,16.0,86,0.00,,,0.00,meteohub,2013-05-26 03:27:00,
2013-05-25 20:32:00,53.8,49.6,30.05,West,279,5.0,16.0,86,0.00,,,0.00,meteohub,2013-05-26 03:32:00,
2013-05-25 20:37:00,53.6,49.5,30.05,West,279,6.0,16.0,86,0.00,,,0.00,meteohub,2013-05-26 03:37:00,
2013-05-25 20:42:00,53.4,49.3,30.06,West,281,4.0,12.0,86,0.00,,,0.00,meteohub,2013-05-26 03:42:00,
2013-05-25 20:47:00,53.4,49.6,30.06,West,279,9.0,12.0,87,0.00,,,0.00,meteohub,2013-05-26 03:47:00,
2013-05-25 20:52:00,53.4,49.6,30.06,West,279,2.0,10.0,87,0.00,,,0.00,meteohub,2013-05-26 03:52:00,
2013-05-25 20:57:00,53.2,49.5,30.06,West,279,3.0,12.0,87,0.00,,,0.00,meteohub,2013-05-26 03:57:00,
2013-05-25 21:02:00,53.2,49.5,30.06,NE,53,2.0,12.0,87,0.00,,,0.00,meteohub,2013-05-26 04:02:00,
2013-05-25 21:07:00,53.2,49.5,30.06,West,279,6.0,12.0,87,0.00,,,0.00,meteohub,2013-05-26 04:07:00,
2013-05-25 21:12:00,53.2,49.5,30.07,NW,304,5.0,12.0,87,0.00,,,0.00,meteohub,2013-05-26 04:12:00,
2013-05-25 21:17:00,53.4,49.6,30.07,West,279,3.0,12.0,87,0.00,,,0.00,meteohub,2013-05-26 04:17:00,
2013-05-25 21:22:00,53.4,49.6,30.07,West,279,1.0,10.0,87,0.00,,,0.00,meteohub,2013-05-26 04:22:00,
2013-05-25 21:27:00,53.6,49.8,30.07,West,280,0.0,10.0,87,0.00,,,0.00,meteohub,2013-05-26 04:27:00,
2013-05-25 21:32:00,53.8,49.6,30.07,West,279,0.0,8.0,86,0.00,,,0.00,meteohub,2013-05-26 04:32:00,
2013-05-25 21:37:00,54.0,49.8,30.07,West,279,2.0,6.0,86,0.00,,,0.00,meteohub,2013-05-26 04:37:00,
2013-05-25 21:42:00,54.1,50.0,30.07,West,279,1.0,7.0,86,0.00,,,0.00,meteohub,2013-05-26 04:42:00,
2013-05-25 21:47:00,54.1,50.0,30.08,WNW,284,1.0,8.0,86,0.00,,,0.00,meteohub,2013-05-26 04:47:00,
2013-05-25 21:52:00,54.1,49.8,30.08,West,279,3.0,8.0,85,0.00,,,0.00,meteohub,2013-05-26 04:52:00,
2013-05-25 21:57:00,54.1,49.8,30.07,WNW,289,1.0,8.0,85,0.00,,,0.00,meteohub,2013-05-26 04:57:00,
2013-05-25 22:02:00,54.1,49.8,30.08,West,279,4.0,10.0,85,0.00,,,0.00,meteohub,2013-05-26 05:02:00,
2013-05-25 22:07:00,54.1,50.0,30.08,WNW,286,4.0,10.0,86,0.00,,,0.00,meteohub,2013-05-26 05:07:00,
2013-05-25 22:12:00,54.1,50.0,30.08,West,279,8.0,10.0,86,0.00,,,0.00,meteohub,2013-05-26 05:12:00,
2013-05-25 22:17:00,54.0,49.8,30.08,West,279,6.0,14.0,86,0.00,,,0.00,meteohub,2013-05-26 05:17:00,
2013-05-25 22:22:00,53.8,49.6,30.09,West,279,4.0,14.0,86,0.00,,,0.00,meteohub,2013-05-26 05:22:00,
2013-05-25 22:27:00,53.8,49.6,30.09,West,279,5.0,14.0,86,0.00,,,0.00,meteohub,2013-05-26 05:27:00,
2013-05-25 22:32:00,53.8,49.6,30.09,West,279,3.0,10.0,86,0.00,,,0.00,meteohub,2013-05-26 05:32:00,
2013-05-25 22:37:00,53.8,49.6,30.09,NNE,20,2.0,13.0,86,0.00,,,0.00,meteohub,2013-05-26 05:37:00,
2013-05-25 22:42:00,53.6,49.8,30.09,NNW,341,0.0,13.0,87,0.00,,,0.00,meteohub,2013-05-26 05:42:00,
2013-05-25 22:47:00,53.6,49.8,30.09,NW,324,2.0,8.0,87,0.00,,,0.00,meteohub,2013-05-26 05:47:00,
2013-05-25 22:52:00,53.4,49.6,30.09,West,279,1.0,8.0,87,0.00,,,0.00,meteohub,2013-05-26 05:52:00,
2013-05-25 22:57:00,53.4,49.6,30.09,West,279,6.0,7.0,87,0.00,,,0.00,meteohub,2013-05-26 05:57:00,
2013-05-25 23:02:00,53.2,49.5,30.09,West,279,5.0,7.0,87,0.00,,,0.00,meteohub,2013-05-26 06:02:00,
2013-05-25 23:07:00,53.1,49.6,30.09,West,279,8.0,14.0,88,0.00,,,0.00,meteohub,2013-05-26 06:07:00,
2013-05-25 23:12:00,52.9,49.5,30.09,West,279,7.0,14.0,88,0.00,,,0.00,meteohub,2013-05-26 06:12:00,
2013-05-25 23:17:00,52.9,49.6,30.09,ENE,60,4.0,14.0,89,0.00,,,0.00,meteohub,2013-05-26 06:17:00,
2013-05-25 23:22:00,52.7,49.5,30.09,ENE,74,4.0,10.0,89,0.00,,,0.00,meteohub,2013-05-26 06:22:00,
2013-05-25 23:27:00,52.7,49.5,30.09,West,279,5.0,12.0,89,0.00,,,0.00,meteohub,2013-05-26 06:27:00,
2013-05-25 23:32:00,52.7,49.5,30.09,ENE,77,8.0,12.0,89,0.00,,,0.00,meteohub,2013-05-26 06:32:00,
2013-05-25 23:37:00,52.7,49.8,30.09,West,279,2.0,12.0,90,0.00,,,0.00,meteohub,2013-05-26 06:37:00,
2013-05-25 23:42:00,52.5,49.5,30.09,West,279,3.0,12.0,89,0.00,,,0.00,meteohub,2013-05-26 06:42:00,
2013-05-25 23:47:00,52.5,49.6,30.09,West,279,5.0,11.0,90,0.00,,,0.00,meteohub,2013-05-26 06:47:00,
2013-05-25 23:52:00,52.5,49.6,30.09,WNW,284,4.0,13.0,90,0.00,,,0.00,meteohub,2013-05-26 06:52:00,
2013-05-25 23:57:00,52.5,49.6,30.09,West,279,4.0,13.0,90,0.00,,,0.00,meteohub,2013-05-26 06:57:00,